Voltar ao catálogo

STARLINK-3177

AtivoComunicaçõesVLEO
NORAD 51138·PAYLOAD·🇺🇸 United States

Lançado Jan 19, 2022 de Cape Canaveral Space Force Station

Loading…

Próximas Passagens (próximas 24 horas)

TLE

AtualizadoSource: CelesTrak SupGP

Época: Sep 15, 2026, 02:17 UTC

1 51138C 22005AL  26258.09562500  .00010724  00000+0  62499-3 0  2581
2 51138  53.1700 167.4170 0003127  78.7341 355.7426 15.11486649    13

Acompanhe STARLINK-3177 em tempo real com AllMySat

Download on the App Store